owner,sensor,date,latitude,longitude,vertical_datum,mass_concentration_of_oxygen_in_sea_water,qcFlag 
SCCF RECON,ioos:station:SCCF:12:1,2008-01-01T05:00:00Z,26.4966,-82.1479,2.12,6.7,1111122 
SCCF RECON,ioos:station:SCCF:12:1,2008-01-01T06:00:00Z,26.4966,-82.1479,2.06,6.47,1111122 
SCCF RECON,ioos:station:SCCF:12:1,2008-01-01T07:00:00Z,26.4966,-82.1479,2.009,6.5,1111122 
SCCF RECON,ioos:station:SCCF:12:1,2008-01-01T09:00:00Z,26.4966,-82.1479,2.034,6.51,1111122 
SCCF RECON,ioos:station:SCCF:12:1,2008-01-01T10:00:00Z,26.4966,-82.1479,2.11,6.09,1111122 
SCCF RECON,ioos:station:SCCF:12:1,2008-01-01T12:00:00Z,26.4966,-82.1479,2.24,5.91,1111122 
SCCF RECON,ioos:station:SCCF:12:1,2008-01-01T13:00:00Z,26.4966,-82.1479,2.29,5.91,1111122 
SCCF RECON,ioos:station:SCCF:12:1,2008-01-01T14:00:00Z,26.4966,-82.1479,2.34,5.94,1111122 
SCCF RECON,ioos:station:SCCF:12:1,2008-01-01T15:00:00Z,26.4966,-82.1479,2.244,6.06,1111122 
SCCF RECON,ioos:station:SCCF:12:1,2008-01-01T16:00:00Z,26.4966,-82.1479,2.17,5.66,1111122 
SCCF RECON,ioos:station:SCCF:12:1,2008-01-01T17:00:00Z,26.4966,-82.1479,2.1,5.71,1111122 
SCCF RECON,ioos:station:SCCF:12:1,2008-01-01T18:00:00Z,26.4966,-82.1479,2.04,5.69,1111122 
SCCF RECON,ioos:station:SCCF:12:1,2008-01-01T19:00:00Z,26.4966,-82.1479,2.001,5.79,1111122 
SCCF RECON,ioos:station:SCCF:12:1,2008-01-01T20:00:00Z,26.4966,-82.1479,2.046,5.95,1111122 
SCCF RECON,ioos:station:SCCF:12:1,2008-01-01T21:00:00Z,26.4966,-82.1479,2.148,6.06,1111122 
SCCF RECON,ioos:station:SCCF:12:1,2008-01-01T23:00:00Z,26.4966,-82.1479,2.295,6.01,1111122 
SCCF RECON,ioos:station:SCCF:12:1,2008-01-02T00:00:00Z,26.4966,-82.1479,2.273,5.95,1111122 
SCCF RECON,ioos:station:SCCF:12:1,2008-01-02T01:00:00Z,26.4966,-82.1479,2.213,5.89,1111122 
SCCF RECON,ioos:station:SCCF:12:1,2008-01-02T02:00:00Z,26.4966,-82.1479,2.126,5.85,1111122 
SCCF RECON,ioos:station:SCCF:12:1,2008-01-02T03:00:00Z,26.4966,-82.1479,2.057,5.77,1111122 
SCCF RECON,ioos:station:SCCF:12:1,2008-01-02T04:00:00Z,26.4966,-82.1479,2.019,5.82,1111122 
SCCF RECON,ioos:station:SCCF:12:1,2008-01-02T05:00:00Z,26.4966,-82.1479,1.988,5.84,1111122 
SCCF RECON,ioos:station:SCCF:12:1,2008-01-02T06:00:00Z,26.4966,-82.1479,1.94,5.92,1111122 
SCCF RECON,ioos:station:SCCF:12:1,2008-01-02T07:00:00Z,26.4966,-82.1479,1.849,5.94,1111122 
SCCF RECON,ioos:station:SCCF:12:1,2008-01-02T08:00:00Z,26.4966,-82.1479,1.76,6.21,1111122 
SCCF RECON,ioos:station:SCCF:12:1,2008-01-02T09:00:00Z,26.4966,-82.1479,1.679,6.21,1111122 
SCCF RECON,ioos:station:SCCF:12:1,2008-01-02T10:00:00Z,26.4966,-82.1479,1.582,6.26,1111122 
SCCF RECON,ioos:station:SCCF:12:1,2008-01-02T11:00:00Z,26.4966,-82.1479,1.532,6.29,1111122 
SCCF RECON,ioos:station:SCCF:12:1,2008-01-02T12:00:00Z,26.4966,-82.1479,1.553,6.31,1111122 
SCCF RECON,ioos:station:SCCF:12:1,2008-01-02T13:00:00Z,26.4966,-82.1479,1.66,6.37,1111122 
SCCF RECON,ioos:station:SCCF:12:1,2008-01-02T14:00:00Z,26.4966,-82.1479,1.726,6.43,1111122 
SCCF RECON,ioos:station:SCCF:12:1,2008-01-02T15:00:00Z,26.4966,-82.1479,1.776,6.48,1111122 
SCCF RECON,ioos:station:SCCF:12:1,2008-01-02T16:00:00Z,26.4966,-82.1479,1.794,6.6,1111122 
SCCF RECON,ioos:station:SCCF:12:1,2008-01-02T17:00:00Z,26.4966,-82.1479,1.803,6.68,1111122 
SCCF RECON,ioos:station:SCCF:12:1,2008-01-02T18:00:00Z,26.4966,-82.1479,1.807,6.63,1111122 
SCCF RECON,ioos:station:SCCF:12:1,2008-01-02T19:00:00Z,26.4966,-82.1479,1.841,6.68,1111122 
SCCF RECON,ioos:station:SCCF:12:1,2008-01-02T21:00:00Z,26.4966,-82.1479,1.919,6.72,1111122 
SCCF RECON,ioos:station:SCCF:12:1,2008-01-02T22:00:00Z,26.4966,-82.1479,1.984,6.81,1111122 
SCCF RECON,ioos:station:SCCF:12:1,2008-01-02T23:00:00Z,26.4966,-82.1479,2.069,6.81,1111122 
SCCF RECON,ioos:station:SCCF:12:1,2008-01-03T00:00:00Z,26.4966,-82.1479,2.155,6.88,1111122 
SCCF RECON,ioos:station:SCCF:12:1,2008-01-03T01:00:00Z,26.4966,-82.1479,2.187,7.05,1111122 
SCCF RECON,ioos:station:SCCF:12:1,2008-01-03T02:00:00Z,26.4966,-82.1479,2.158,7.2,1111122 
SCCF RECON,ioos:station:SCCF:12:1,2008-01-03T03:00:00Z,26.4966,-82.1479,2.093,7.16,1111122 
SCCF RECON,ioos:station:SCCF:12:1,2008-01-03T04:00:00Z,26.4966,-82.1479,2.035,6.81,1111122 
SCCF RECON,ioos:station:SCCF:12:1,2008-01-03T05:00:00Z,26.4966,-82.1479,1.976,6.83,1111122 
SCCF RECON,ioos:station:SCCF:12:1,2008-01-03T06:00:00Z,26.4966,-82.1479,1.9,6.89,1111122 
SCCF RECON,ioos:station:SCCF:12:1,2008-01-03T07:00:00Z,26.4966,-82.1479,1.794,6.93,1111122 
SCCF RECON,ioos:station:SCCF:12:1,2008-01-03T08:00:00Z,26.4966,-82.1479,1.68,6.8,1111122 
SCCF RECON,ioos:station:SCCF:12:1,2008-01-03T09:00:00Z,26.4966,-82.1479,1.579,6.93,1111122 
SCCF RECON,ioos:station:SCCF:12:1,2008-01-03T10:00:00Z,26.4966,-82.1479,1.498,6.8,1111122 
SCCF RECON,ioos:station:SCCF:12:1,2008-01-03T11:00:00Z,26.4966,-82.1479,1.455,6.75,1111122 
SCCF RECON,ioos:station:SCCF:12:1,2008-01-03T12:00:00Z,26.4966,-82.1479,1.467,6.92,1111122 
SCCF RECON,ioos:station:SCCF:12:1,2008-01-03T13:00:00Z,26.4966,-82.1479,1.544,7.02,1111122 
SCCF RECON,ioos:station:SCCF:12:1,2008-01-03T14:00:00Z,26.4966,-82.1479,1.642,7.08,1111122 
SCCF RECON,ioos:station:SCCF:12:1,2008-01-03T15:00:00Z,26.4966,-82.1479,1.694,7.03,1111122 
SCCF RECON,ioos:station:SCCF:12:1,2008-01-03T16:00:00Z,26.4966,-82.1479,1.74,6.98,1111122 
SCCF RECON,ioos:station:SCCF:12:1,2008-01-03T17:00:00Z,26.4966,-82.1479,1.76,7.05,1111122 
SCCF RECON,ioos:station:SCCF:12:1,2008-01-03T18:00:00Z,26.4966,-82.1479,1.794,6.92,1111122 
SCCF RECON,ioos:station:SCCF:12:1,2008-01-03T19:00:00Z,26.4966,-82.1479,1.834,6.92,1111122 
SCCF RECON,ioos:station:SCCF:12:1,2008-01-03T20:00:00Z,26.4966,-82.1479,1.885,6.99,1111122 
SCCF RECON,ioos:station:SCCF:12:1,2008-01-03T21:00:00Z,26.4966,-82.1479,1.947,6.95,1111122 
SCCF RECON,ioos:station:SCCF:12:1,2008-01-03T22:00:00Z,26.4966,-82.1479,2.026,7.04,1111122 
SCCF RECON,ioos:station:SCCF:12:1,2008-01-03T23:00:00Z,26.4966,-82.1479,2.104,6.91,1111122 
SCCF RECON,ioos:station:SCCF:12:1,2008-01-04T00:00:00Z,26.4966,-82.1479,2.172,6.85,1111122 
SCCF RECON,ioos:station:SCCF:12:1,2008-01-04T01:00:00Z,26.4966,-82.1479,2.215,7.09,1111122 
SCCF RECON,ioos:station:SCCF:12:1,2008-01-04T02:00:00Z,26.4966,-82.1479,2.207,7.18,1111122 
SCCF RECON,ioos:station:SCCF:12:1,2008-01-04T03:00:00Z,26.4966,-82.1479,2.17,7.05,1111122 
SCCF RECON,ioos:station:SCCF:12:1,2008-01-04T04:00:00Z,26.4966,-82.1479,2.097,7.02,1111122 
SCCF RECON,ioos:station:SCCF:12:1,2008-01-04T05:00:00Z,26.4966,-82.1479,2.015,7.04,1111122 
SCCF RECON,ioos:station:SCCF:12:1,2008-01-04T06:00:00Z,26.4966,-82.1479,1.92,7.03,1111122 
SCCF RECON,ioos:station:SCCF:12:1,2008-01-04T07:00:00Z,26.4966,-82.1479,1.817,7.09,1111122 
SCCF RECON,ioos:station:SCCF:12:1,2008-01-04T08:00:00Z,26.4966,-82.1479,1.719,7.21,1111122 
SCCF RECON,ioos:station:SCCF:12:1,2008-01-04T09:00:00Z,26.4966,-82.1479,1.635,7.27,1111122 
SCCF RECON,ioos:station:SCCF:12:1,2008-01-04T10:00:00Z,26.4966,-82.1479,1.583,7.15,1111122 
SCCF RECON,ioos:station:SCCF:12:1,2008-01-04T11:00:00Z,26.4966,-82.1479,1.578,7.06,1111122 
SCCF RECON,ioos:station:SCCF:12:1,2008-01-04T12:00:00Z,26.4966,-82.1479,1.645,6.94,1111122 
SCCF RECON,ioos:station:SCCF:12:1,2008-01-04T13:00:00Z,26.4966,-82.1479,1.753,6.89,1111122 
SCCF RECON,ioos:station:SCCF:12:1,2008-01-04T14:00:00Z,26.4966,-82.1479,1.864,6.68,1111122 
SCCF RECON,ioos:station:SCCF:12:1,2008-01-04T15:00:00Z,26.4966,-82.1479,1.949,6.6,1111122 
SCCF RECON,ioos:station:SCCF:12:1,2008-01-04T16:00:00Z,26.4966,-82.1479,2.019,6.81,1111122 
SCCF RECON,ioos:station:SCCF:12:1,2008-01-04T17:00:00Z,26.4966,-82.1479,2.07,6.87,1111122 
SCCF RECON,ioos:station:SCCF:12:1,2008-01-04T18:00:00Z,26.4966,-82.1479,2.094,6.87,1111122 
SCCF RECON,ioos:station:SCCF:12:1,2008-01-04T19:00:00Z,26.4966,-82.1479,2.1,7.05,1111122 
SCCF RECON,ioos:station:SCCF:12:1,2008-01-04T20:00:00Z,26.4966,-82.1479,2.098,6.86,1111122 
SCCF RECON,ioos:station:SCCF:12:1,2008-01-04T21:00:00Z,26.4966,-82.1479,2.132,6.7,1111122 
SCCF RECON,ioos:station:SCCF:12:1,2008-01-04T22:00:00Z,26.4966,-82.1479,2.19,6.61,1111122 
SCCF RECON,ioos:station:SCCF:12:1,2008-01-04T23:00:00Z,26.4966,-82.1479,2.256,6.61,1111122 
SCCF RECON,ioos:station:SCCF:12:1,2008-01-05T00:00:00Z,26.4966,-82.1479,2.33,6.88,1111122 
SCCF RECON,ioos:station:SCCF:12:1,2008-01-05T01:00:00Z,26.4966,-82.1479,2.38,6.55,1111122 
SCCF RECON,ioos:station:SCCF:12:1,2008-01-05T02:00:00Z,26.4966,-82.1479,2.382,6.51,1111122 
SCCF RECON,ioos:station:SCCF:12:1,2008-01-05T03:00:00Z,26.4966,-82.1479,2.34,6.5,1111122 
SCCF RECON,ioos:station:SCCF:12:1,2008-01-05T04:00:00Z,26.4966,-82.1479,2.28,6.5,1111122 
SCCF RECON,ioos:station:SCCF:12:1,2008-01-05T05:00:00Z,26.4966,-82.1479,2.209,6.45,1111122 
SCCF RECON,ioos:station:SCCF:12:1,2008-01-05T06:00:00Z,26.4966,-82.1479,2.102,6.62,1111122 
SCCF RECON,ioos:station:SCCF:12:1,2008-01-05T08:00:00Z,26.4966,-82.1479,1.88,6.37,1111122 
SCCF RECON,ioos:station:SCCF:12:1,2008-01-05T09:00:00Z,26.4966,-82.1479,1.775,6.59,1111122 
SCCF RECON,ioos:station:SCCF:12:1,2008-01-05T10:00:00Z,26.4966,-82.1479,1.684,6.65,1111122 
SCCF RECON,ioos:station:SCCF:12:1,2008-01-05T11:00:00Z,26.4966,-82.1479,1.633,6.82,1111122 
SCCF RECON,ioos:station:SCCF:12:1,2008-01-05T12:00:00Z,26.4966,-82.1479,1.667,6.68,1111122 
SCCF RECON,ioos:station:SCCF:12:1,2008-01-05T13:00:00Z,26.4966,-82.1479,1.796,6.41,1111122 
SCCF RECON,ioos:station:SCCF:12:1,2008-01-05T14:00:00Z,26.4966,-82.1479,1.91,6.3,1111122 
SCCF RECON,ioos:station:SCCF:12:1,2008-01-05T15:00:00Z,26.4966,-82.1479,2.01,6.52,1111122 
SCCF RECON,ioos:station:SCCF:12:1,2008-01-05T16:00:00Z,26.4966,-82.1479,2.1,6.38,1111122 
SCCF RECON,ioos:station:SCCF:12:1,2008-01-05T17:00:00Z,26.4966,-82.1479,2.18,6.6,1111122 
SCCF RECON,ioos:station:SCCF:12:1,2008-01-05T18:00:00Z,26.4966,-82.1479,2.217,6.86,1111122 
SCCF RECON,ioos:station:SCCF:12:1,2008-01-05T19:00:00Z,26.4966,-82.1479,2.228,6.67,1111122 
SCCF RECON,ioos:station:SCCF:12:1,2008-01-05T20:00:00Z,26.4966,-82.1479,2.21,6.55,1111122 
SCCF RECON,ioos:station:SCCF:12:1,2008-01-05T21:00:00Z,26.4966,-82.1479,2.189,6.47,1111122 
SCCF RECON,ioos:station:SCCF:12:1,2008-01-05T22:00:00Z,26.4966,-82.1479,2.2,6.41,1111122 
SCCF RECON,ioos:station:SCCF:12:1,2008-01-05T23:00:00Z,26.4966,-82.1479,2.25,6.89,1111122 
SCCF RECON,ioos:station:SCCF:12:1,2008-01-06T00:00:00Z,26.4966,-82.1479,2.33,6.8,1111122 
SCCF RECON,ioos:station:SCCF:12:1,2008-01-06T01:00:00Z,26.4966,-82.1479,2.4,6.87,1111122 
SCCF RECON,ioos:station:SCCF:12:1,2008-01-06T02:00:00Z,26.4966,-82.1479,2.47,6.48,1111122 
SCCF RECON,ioos:station:SCCF:12:1,2008-01-06T03:00:00Z,26.4966,-82.1479,2.51,6.62,1111122 
SCCF RECON,ioos:station:SCCF:12:1,2008-01-06T04:00:00Z,26.4966,-82.1479,2.48,6.42,1111122 
SCCF RECON,ioos:station:SCCF:12:1,2008-01-06T05:00:00Z,26.4966,-82.1479,2.41,6.65,1111122 
SCCF RECON,ioos:station:SCCF:12:1,2008-01-06T06:00:00Z,26.4966,-82.1479,2.3,6.81,1111122 
SCCF RECON,ioos:station:SCCF:12:1,2008-01-06T07:00:00Z,26.4966,-82.1479,2.18,6.63,1111122 
SCCF RECON,ioos:station:SCCF:12:1,2008-01-06T08:00:00Z,26.4966,-82.1479,2.05,6.38,1111122 
SCCF RECON,ioos:station:SCCF:12:1,2008-01-06T09:00:00Z,26.4966,-82.1479,1.93,6.4,1111122 
SCCF RECON,ioos:station:SCCF:12:1,2008-01-06T10:00:00Z,26.4966,-82.1479,1.82,6.19,1111122 
SCCF RECON,ioos:station:SCCF:12:1,2008-01-06T11:00:00Z,26.4966,-82.1479,1.733,6.51,1111122 
SCCF RECON,ioos:station:SCCF:12:1,2008-01-06T12:00:00Z,26.4966,-82.1479,1.69,6.7,1111122 
SCCF RECON,ioos:station:SCCF:12:1,2008-01-06T13:00:00Z,26.4966,-82.1479,1.75,6.54,1111122 
SCCF RECON,ioos:station:SCCF:12:1,2008-01-06T16:00:00Z,26.4966,-82.1479,2.11,6.77,1111122 
SCCF RECON,ioos:station:SCCF:12:1,2008-01-06T17:00:00Z,26.4966,-82.1479,2.183,7.04,1111122 
SCCF RECON,ioos:station:SCCF:12:1,2008-01-06T18:00:00Z,26.4966,-82.1479,2.223,7.16,1111122 
SCCF RECON,ioos:station:SCCF:12:1,2008-01-06T19:00:00Z,26.4966,-82.1479,2.23,6.95,1111122 
SCCF RECON,ioos:station:SCCF:12:1,2008-01-06T20:00:00Z,26.4966,-82.1479,2.211,7.04,1111122 
SCCF RECON,ioos:station:SCCF:12:1,2008-01-06T21:00:00Z,26.4966,-82.1479,2.2,6.77,1111122 
SCCF RECON,ioos:station:SCCF:12:1,2008-01-06T22:00:00Z,26.4966,-82.1479,2.21,6.6,1111122 
SCCF RECON,ioos:station:SCCF:12:1,2008-01-06T23:00:00Z,26.4966,-82.1479,2.23,6.53,1111122 
SCCF RECON,ioos:station:SCCF:12:1,2008-01-07T00:00:00Z,26.4966,-82.1479,2.29,6.72,1111122 
SCCF RECON,ioos:station:SCCF:12:1,2008-01-07T01:00:00Z,26.4966,-82.1479,2.36,7.08,1111122 
SCCF RECON,ioos:station:SCCF:12:1,2008-01-07T02:00:00Z,26.4966,-82.1479,2.43,6.77,1111122 
SCCF RECON,ioos:station:SCCF:12:1,2008-01-07T03:00:00Z,26.4966,-82.1479,2.51,6.54,1111122 
SCCF RECON,ioos:station:SCCF:12:1,2008-01-07T04:00:00Z,26.4966,-82.1479,2.54,6.55,1111122 
SCCF RECON,ioos:station:SCCF:12:1,2008-01-07T06:00:00Z,26.4966,-82.1479,2.43,6.84,1111122 
SCCF RECON,ioos:station:SCCF:12:1,2008-01-07T07:00:00Z,26.4966,-82.1479,2.32,6.73,1111122 
SCCF RECON,ioos:station:SCCF:12:1,2008-01-07T08:00:00Z,26.4966,-82.1479,2.19,6.47,1111122 
SCCF RECON,ioos:station:SCCF:12:1,2008-01-07T09:00:00Z,26.4966,-82.1479,2.06,6.55,1111122 
SCCF RECON,ioos:station:SCCF:12:1,2008-01-07T10:00:00Z,26.4966,-82.1479,1.93,6.37,1111122 
SCCF RECON,ioos:station:SCCF:12:1,2008-01-07T11:00:00Z,26.4966,-82.1479,1.82,6.36,1111122 
SCCF RECON,ioos:station:SCCF:12:1,2008-01-07T12:00:00Z,26.4966,-82.1479,1.736,6.51,1111122 
SCCF RECON,ioos:station:SCCF:12:1,2008-01-07T13:00:00Z,26.4966,-82.1479,1.72,6.57,1111122 
SCCF RECON,ioos:station:SCCF:12:1,2008-01-07T14:00:00Z,26.4966,-82.1479,1.843,6.76,1111122 
SCCF RECON,ioos:station:SCCF:12:1,2008-01-07T15:00:00Z,26.4966,-82.1479,1.992,6.5,1111122 
SCCF RECON,ioos:station:SCCF:12:1,2008-01-07T16:00:00Z,26.4966,-82.1479,2.111,6.92,1111122 
SCCF RECON,ioos:station:SCCF:12:1,2008-01-07T17:00:00Z,26.4966,-82.1479,2.22,7.34,1111122 
SCCF RECON,ioos:station:SCCF:12:1,2008-01-07T18:00:00Z,26.4966,-82.1479,2.277,7.17,1111122 
SCCF RECON,ioos:station:SCCF:12:1,2008-01-07T20:00:00Z,26.4966,-82.1479,2.3,6.68,1111122 
SCCF RECON,ioos:station:SCCF:12:1,2008-01-07T21:00:00Z,26.4966,-82.1479,2.259,6.94,1111122 
SCCF RECON,ioos:station:SCCF:12:1,2008-01-07T22:00:00Z,26.4966,-82.1479,2.21,7.11,1111122 
SCCF RECON,ioos:station:SCCF:12:1,2008-01-07T23:00:00Z,26.4966,-82.1479,2.21,6.74,1111122 
SCCF RECON,ioos:station:SCCF:12:1,2008-01-08T00:00:00Z,26.4966,-82.1479,2.26,6.78,1111122 
SCCF RECON,ioos:station:SCCF:12:1,2008-01-08T01:00:00Z,26.4966,-82.1479,2.34,7.28,1111122 
SCCF RECON,ioos:station:SCCF:12:1,2008-01-08T02:00:00Z,26.4966,-82.1479,2.43,7.42,1111122 
SCCF RECON,ioos:station:SCCF:12:1,2008-01-08T03:00:00Z,26.4966,-82.1479,2.52,7.45,1111122 
SCCF RECON,ioos:station:SCCF:12:1,2008-01-08T04:00:00Z,26.4966,-82.1479,2.57,6.98,1111122 
SCCF RECON,ioos:station:SCCF:12:1,2008-01-08T05:00:00Z,26.4966,-82.1479,2.56,6.78,1111122 
SCCF RECON,ioos:station:SCCF:12:1,2008-01-08T07:00:00Z,26.4966,-82.1479,2.393,7.29,1111122 
SCCF RECON,ioos:station:SCCF:12:1,2008-01-08T08:00:00Z,26.4966,-82.1479,2.26,6.94,1111122 
SCCF RECON,ioos:station:SCCF:12:1,2008-01-08T09:00:00Z,26.4966,-82.1479,2.12,6.59,1111122 
SCCF RECON,ioos:station:SCCF:12:1,2008-01-08T10:00:00Z,26.4966,-82.1479,1.99,6.65,1111122 
SCCF RECON,ioos:station:SCCF:12:1,2008-01-08T11:00:00Z,26.4966,-82.1479,1.867,6.76,1111122 
SCCF RECON,ioos:station:SCCF:12:1,2008-01-08T12:00:00Z,26.4966,-82.1479,1.75,6.59,1111122 
SCCF RECON,ioos:station:SCCF:12:1,2008-01-08T13:00:00Z,26.4966,-82.1479,1.67,6.78,1111122 
SCCF RECON,ioos:station:SCCF:12:1,2008-01-08T14:00:00Z,26.4966,-82.1479,1.68,6.95,1111122 
SCCF RECON,ioos:station:SCCF:12:1,2008-01-08T15:00:00Z,26.4966,-82.1479,1.834,6.88,1111122 
SCCF RECON,ioos:station:SCCF:12:1,2008-01-08T16:00:00Z,26.4966,-82.1479,1.983,6.99,1111122 
SCCF RECON,ioos:station:SCCF:12:1,2008-01-08T17:00:00Z,26.4966,-82.1479,2.101,7.6,1111122 
SCCF RECON,ioos:station:SCCF:12:1,2008-01-08T18:00:00Z,26.4966,-82.1479,2.188,7.67,1111122 
SCCF RECON,ioos:station:SCCF:12:1,2008-01-08T19:00:00Z,26.4966,-82.1479,2.239,7.92,1111122 
SCCF RECON,ioos:station:SCCF:12:1,2008-01-08T20:00:00Z,26.4966,-82.1479,2.243,7.71,1111122 
SCCF RECON,ioos:station:SCCF:12:1,2008-01-08T21:00:00Z,26.4966,-82.1479,2.226,7.68,1111122 
SCCF RECON,ioos:station:SCCF:12:1,2008-01-08T22:00:00Z,26.4966,-82.1479,2.191,7.38,1111122 
SCCF RECON,ioos:station:SCCF:12:1,2008-01-08T23:00:00Z,26.4966,-82.1479,2.16,7.15,1111122 
SCCF RECON,ioos:station:SCCF:12:1,2008-01-09T00:00:00Z,26.4966,-82.1479,2.18,6.94,1111122 
SCCF RECON,ioos:station:SCCF:12:1,2008-01-09T01:00:00Z,26.4966,-82.1479,2.25,7.17,1111122 
SCCF RECON,ioos:station:SCCF:12:1,2008-01-09T02:00:00Z,26.4966,-82.1479,2.33,7.32,1111122 
SCCF RECON,ioos:station:SCCF:12:1,2008-01-09T03:00:00Z,26.4966,-82.1479,2.43,7.38,1111122 
SCCF RECON,ioos:station:SCCF:12:1,2008-01-09T04:00:00Z,26.4966,-82.1479,2.52,7.43,1111122 
SCCF RECON,ioos:station:SCCF:12:1,2008-01-09T05:00:00Z,26.4966,-82.1479,2.57,7.38,1111122 
SCCF RECON,ioos:station:SCCF:12:1,2008-01-09T06:00:00Z,26.4966,-82.1479,2.56,7.1,1111122 
SCCF RECON,ioos:station:SCCF:12:1,2008-01-09T07:00:00Z,26.4966,-82.1479,2.488,7.81,1111122 
SCCF RECON,ioos:station:SCCF:12:1,2008-01-09T08:00:00Z,26.4966,-82.1479,2.374,7.69,1111122 
SCCF RECON,ioos:station:SCCF:12:1,2008-01-09T09:00:00Z,26.4966,-82.1479,2.23,7.15,1111122 
SCCF RECON,ioos:station:SCCF:12:1,2008-01-09T10:00:00Z,26.4966,-82.1479,2.08,6.92,1111122 
SCCF RECON,ioos:station:SCCF:12:1,2008-01-09T11:00:00Z,26.4966,-82.1479,1.95,6.72,1111122 
SCCF RECON,ioos:station:SCCF:12:1,2008-01-09T12:00:00Z,26.4966,-82.1479,1.828,6.77,1111122 
SCCF RECON,ioos:station:SCCF:12:1,2008-01-09T13:00:00Z,26.4966,-82.1479,1.727,6.73,1111122 
SCCF RECON,ioos:station:SCCF:12:1,2008-01-09T14:00:00Z,26.4966,-82.1479,1.67,7.2,1111122 
SCCF RECON,ioos:station:SCCF:12:1,2008-01-09T15:00:00Z,26.4966,-82.1479,1.74,7.11,1111122 
SCCF RECON,ioos:station:SCCF:12:1,2008-01-09T16:00:00Z,26.4966,-82.1479,1.905,7.1,1111122 
SCCF RECON,ioos:station:SCCF:12:1,2008-01-09T17:00:00Z,26.4966,-82.1479,2.041,7.37,1111122 
SCCF RECON,ioos:station:SCCF:12:1,2008-01-09T18:00:00Z,26.4966,-82.1479,2.147,7.51,1111122 
SCCF RECON,ioos:station:SCCF:12:1,2008-01-09T19:00:00Z,26.4966,-82.1479,2.213,7.53,1111122 
SCCF RECON,ioos:station:SCCF:12:1,2008-01-09T20:00:00Z,26.4966,-82.1479,2.25,7.48,1111122 
SCCF RECON,ioos:station:SCCF:12:1,2008-01-09T21:00:00Z,26.4966,-82.1479,2.211,7.85,1111122 
SCCF RECON,ioos:station:SCCF:12:1,2008-01-09T22:00:00Z,26.4966,-82.1479,2.14,7.77,1111122 
SCCF RECON,ioos:station:SCCF:12:1,2008-01-09T23:00:00Z,26.4966,-82.1479,2.088,7.49,1111122 
SCCF RECON,ioos:station:SCCF:12:1,2008-01-10T00:00:00Z,26.4966,-82.1479,2.06,7.54,1111122 
SCCF RECON,ioos:station:SCCF:12:1,2008-01-10T01:00:00Z,26.4966,-82.1479,2.076,7.07,1111122 
SCCF RECON,ioos:station:SCCF:12:1,2008-01-10T02:00:00Z,26.4966,-82.1479,2.13,7.57,1111122 
SCCF RECON,ioos:station:SCCF:12:1,2008-01-10T03:00:00Z,26.4966,-82.1479,2.236,7.21,1111122 
SCCF RECON,ioos:station:SCCF:12:1,2008-01-10T04:00:00Z,26.4966,-82.1479,2.36,6.98,1111122 
SCCF RECON,ioos:station:SCCF:12:1,2008-01-10T05:00:00Z,26.4966,-82.1479,2.46,6.99,1111122 
SCCF RECON,ioos:station:SCCF:12:1,2008-01-10T06:00:00Z,26.4966,-82.1479,2.5,6.85,1111122 
SCCF RECON,ioos:station:SCCF:12:1,2008-01-10T08:00:00Z,26.4966,-82.1479,2.36,7.45,1111122 
SCCF RECON,ioos:station:SCCF:12:1,2008-01-10T09:00:00Z,26.4966,-82.1479,2.23,7.26,1111122 
SCCF RECON,ioos:station:SCCF:12:1,2008-01-10T10:00:00Z,26.4966,-82.1479,2.09,6.91,1111122 
SCCF RECON,ioos:station:SCCF:12:1,2008-01-10T11:00:00Z,26.4966,-82.1479,1.96,6.73,1111122 
SCCF RECON,ioos:station:SCCF:12:1,2008-01-10T12:00:00Z,26.4966,-82.1479,1.84,6.54,1111122 
SCCF RECON,ioos:station:SCCF:12:1,2008-01-10T13:00:00Z,26.4966,-82.1479,1.73,6.33,1111122 
SCCF RECON,ioos:station:SCCF:12:1,2008-01-10T14:00:00Z,26.4966,-82.1479,1.65,6.61,1111122 
SCCF RECON,ioos:station:SCCF:12:1,2008-01-10T15:00:00Z,26.4966,-82.1479,1.65,6.85,1111122 
SCCF RECON,ioos:station:SCCF:12:1,2008-01-10T16:00:00Z,26.4966,-82.1479,1.782,6.82,1111122 
SCCF RECON,ioos:station:SCCF:12:1,2008-01-10T17:00:00Z,26.4966,-82.1479,1.933,6.78,1111122 
SCCF RECON,ioos:station:SCCF:12:1,2008-01-10T18:00:00Z,26.4966,-82.1479,2.05,7.47,1111122 
SCCF RECON,ioos:station:SCCF:12:1,2008-01-10T19:00:00Z,26.4966,-82.1479,2.139,7.36,1111122 
SCCF RECON,ioos:station:SCCF:12:1,2008-01-10T20:00:00Z,26.4966,-82.1479,2.185,7.59,1111122 
SCCF RECON,ioos:station:SCCF:12:1,2008-01-10T21:00:00Z,26.4966,-82.1479,2.183,7.69,1111122 
SCCF RECON,ioos:station:SCCF:12:1,2008-01-10T22:00:00Z,26.4966,-82.1479,2.138,7.09,1111122 
SCCF RECON,ioos:station:SCCF:12:1,2008-01-10T23:00:00Z,26.4966,-82.1479,2.07,7.16,1111122 
SCCF RECON,ioos:station:SCCF:12:1,2008-01-11T00:00:00Z,26.4966,-82.1479,2.02,6.89,1111122 
SCCF RECON,ioos:station:SCCF:12:1,2008-01-11T01:00:00Z,26.4966,-82.1479,2.01,6.43,1111122 
SCCF RECON,ioos:station:SCCF:12:1,2008-01-11T02:00:00Z,26.4966,-82.1479,2.05,6.7,1111122 
SCCF RECON,ioos:station:SCCF:12:1,2008-01-11T03:00:00Z,26.4966,-82.1479,2.14,6.66,1111122 
SCCF RECON,ioos:station:SCCF:12:1,2008-01-11T04:00:00Z,26.4966,-82.1479,2.27,6.94,1111122 
SCCF RECON,ioos:station:SCCF:12:1,2008-01-11T05:00:00Z,26.4966,-82.1479,2.39,6.93,1111122 
SCCF RECON,ioos:station:SCCF:12:1,2008-01-11T06:00:00Z,26.4966,-82.1479,2.45,6.64,1111122 
SCCF RECON,ioos:station:SCCF:12:1,2008-01-11T07:00:00Z,26.4966,-82.1479,2.45,6.48,1111122 
SCCF RECON,ioos:station:SCCF:12:1,2008-01-11T10:00:00Z,26.4966,-82.1479,2.2,6.81,1111122 
SCCF RECON,ioos:station:SCCF:12:1,2008-01-11T11:00:00Z,26.4966,-82.1479,2.07,6.29,1111122 
SCCF RECON,ioos:station:SCCF:12:1,2008-01-11T12:00:00Z,26.4966,-82.1479,1.94,6.31,1111122 
SCCF RECON,ioos:station:SCCF:12:1,2008-01-11T13:00:00Z,26.4966,-82.1479,1.83,5.93,1111122 
SCCF RECON,ioos:station:SCCF:12:1,2008-01-11T14:00:00Z,26.4966,-82.1479,1.73,6.11,1111122 
SCCF RECON,ioos:station:SCCF:12:1,2008-01-11T15:00:00Z,26.4966,-82.1479,1.679,6.1,1111122 
SCCF RECON,ioos:station:SCCF:12:1,2008-01-11T16:00:00Z,26.4966,-82.1479,1.754,6.36,1111122 
SCCF RECON,ioos:station:SCCF:12:1,2008-01-11T17:00:00Z,26.4966,-82.1479,1.912,6.29,1111122 
SCCF RECON,ioos:station:SCCF:12:1,2008-01-11T18:00:00Z,26.4966,-82.1479,2.035,6.78,1111122 
SCCF RECON,ioos:station:SCCF:12:1,2008-01-11T19:00:00Z,26.4966,-82.1479,2.131,6.79,1111122 
SCCF RECON,ioos:station:SCCF:12:1,2008-01-11T20:00:00Z,26.4966,-82.1479,2.197,6.78,1111122 
SCCF RECON,ioos:station:SCCF:12:1,2008-01-11T21:00:00Z,26.4966,-82.1479,2.23,6.61,1111122 
SCCF RECON,ioos:station:SCCF:12:1,2008-01-11T22:00:00Z,26.4966,-82.1479,2.212,6.55,1111122 
SCCF RECON,ioos:station:SCCF:12:1,2008-01-11T23:00:00Z,26.4966,-82.1479,2.14,6.54,1111122 
SCCF RECON,ioos:station:SCCF:12:1,2008-01-12T00:00:00Z,26.4966,-82.1479,2.06,6.41,1111122 
SCCF RECON,ioos:station:SCCF:12:1,2008-01-12T01:00:00Z,26.4966,-82.1479,2.0,6.28,1111122 
SCCF RECON,ioos:station:SCCF:12:1,2008-01-12T02:00:00Z,26.4966,-82.1479,1.96,5.93,1111122 
SCCF RECON,ioos:station:SCCF:12:1,2008-01-12T03:00:00Z,26.4966,-82.1479,1.98,6.07,1111122 
SCCF RECON,ioos:station:SCCF:12:1,2008-01-12T04:00:00Z,26.4966,-82.1479,2.07,6.01,1111122 
SCCF RECON,ioos:station:SCCF:12:1,2008-01-12T05:00:00Z,26.4966,-82.1479,2.22,5.73,1111122 
SCCF RECON,ioos:station:SCCF:12:1,2008-01-12T06:00:00Z,26.4966,-82.1479,2.34,5.72,1111122 
SCCF RECON,ioos:station:SCCF:12:1,2008-01-12T07:00:00Z,26.4966,-82.1479,2.4,5.75,1111122 
SCCF RECON,ioos:station:SCCF:12:1,2008-01-12T09:00:00Z,26.4966,-82.1479,2.35,6.3,1111122 
SCCF RECON,ioos:station:SCCF:12:1,2008-01-12T10:00:00Z,26.4966,-82.1479,2.26,6.51,1111122 
SCCF RECON,ioos:station:SCCF:12:1,2008-01-12T11:00:00Z,26.4966,-82.1479,2.14,6.11,1111122 
SCCF RECON,ioos:station:SCCF:12:1,2008-01-12T12:00:00Z,26.4966,-82.1479,2.016,5.64,1111122 
SCCF RECON,ioos:station:SCCF:12:1,2008-01-12T13:00:00Z,26.4966,-82.1479,1.9,5.77,1111122 
SCCF RECON,ioos:station:SCCF:12:1,2008-01-12T14:00:00Z,26.4966,-82.1479,1.803,5.49,1111122 
SCCF RECON,ioos:station:SCCF:12:1,2008-01-12T15:00:00Z,26.4966,-82.1479,1.74,5.88,1111122 